Lid_Strength_Index
7 7 7 8 8 7 14 20 21 17 18 20 23 23 22 19 21 21 22 23 23 26 27 28 27 27 25 23 22 25 24 32 32 31 32 30 33 31 32 29 31 34 31 28
7 7 7 8 8 8 17 20 20 17 18 22 24 23 22 21 22 22 23 23 22 24 26 28 26 25 22 22 22 26 23 30 34 31 30 25 29 33 34 31 30 37 31 27
7 7 8 8 8 8 17 20 21 20 21 22 23 23 23 23 21 22 21 22 23 25 27 26 28 25 22 21 21 18 22 27 28 31 28 27 28 26 33 31 29 35 31 27
7 7 8 8 8 9 17 21 22 22 22 22 23 23 22 23 24 23 22 24 24 26 30 27 27 25 24 22 20 23 25 32 28 27 25 24 25 24 28 31 31 27 30 31
7 7 8 8 8 10 18 20 21 22 23 23 23 24 24 23 23 24 25 25 24 25 28 26 29 28 26 26 25 25 26 32 28 28 25 24 25 23 23 27 37 33 35 30
7 8 8 8 9 13 19 19 19 20 22 24 24 23 23 22 22 23 22 23 24 25 24 23 24 24 25 26 26 27 28 31 30 32 27 27 29 26 24 26 29 28 28 23
8 8 8 9 9 13 17 18 19 20 22 23 22 21 21 22 23 24 23 23 24 23 23 23 25 26 25 26 26 24 29 31 31 33 31 34 26 25 22 22 23 25 23 22
8 9 8 8 9 12 16 17 18 21 22 21 22 22 22 23 24 24 23 23 23 23 24 27 29 29 28 28 27 27 27 32 36 37 36 28 26 25 25 26 24 21 22 21
7 8 9 9 9 12 17 18 17 19 22 21 20 22 23 25 26 25 23 22 23 23 24 27 31 31 32 30 29 27 27 29 32 35 35 32 28 25 23 24 28 22 21 21
6 8 9 9 9 11 16 18 17 18 21 20 22 22 22 24 26 26 25 24 24 23 27 28 30 32 31 33 33 33 32 33 34 33 33 30 26 24 23 30 25 21 21 20
6 8 9 9 9 11 16 18 17 18 23 21 20 20 24 24 25 26 25 25 26 27 30 29 30 32 32 33 31 34 32 35 34 33 35 33 25 26 27 23 25 21 21 20
6 6 8 9 9 10 14 18 16 17 21 21 20 19 19 20 20 24 27 25 27 25 29 30 30 29 33 34 31 33 33 30 30 28 27 27 24 25 26 31 27 26 26 21
5 6 7 9 9 10 13 17 18 18 21 21 21 21 20 18 19 19 25 25 26 28 28 28 31 30 27 31 31 35 31 33 30 29 25 28 25 24 30 31 27 29 27 26
6 6 7 8 9 11 13 17 17 18 19 23 22 19 21 19 18 19 20 24 25 27 28 30 30 28 25 29 30 32 29 32 32 30 27 27 27 29 29 30 31 30 31 28
5 6 7 7 9 11 15 16 17 17 20 22 21 21 20 19 20 20 21 23 28 30 31 31 30 28 28 32 32 34 31 30 29 27 26 26 28 33 36 33 30 32 30 30
5 6 7 7 9 11 16 19 17 17 17 22 24 21 21 20 21 21 22 23 27 30 29 30 31 29 28 34 34 27 29 33 31 27 34 31 33 35 38 33 31 35 33 31
5 6 7 7 9 15 17 18 17 14 16 21 24 22 22 21 21 22 22 23 25 25 29 28 27 28 26 34 33 27 32 27 29 37 32 28 35 28 38 36 38 35 37 38
5 5 6 8 9 12 16 16 14 16 19 20 27 25 25 21 25 26 21 24 23 24 24 25 27 28 29 33 28 29 33 35 33 31 29 28 36 38 39 41 39 33 32 33
5 6 7 11 13 16 17 13 15 17 19 27 25 25 26 23 25 26 25 24 29 24 27 27 26 30 32 28 28 30 29 28 29 31 30 31 32 29 32 33 33 31 29 29
6 10 12 15 15 12 13 18 20 20 20 21 23 23 25 26 25 27 29 29 31 34 31 26 29 31 26 25 25 25 25 26 28 27 26 29 29 28 28 27 26 25 23 23
10 14 14 14 11 17 18 23 24 23 24 23 23 24 25 24 28 27 27 33 30 34 31 32 33 33 29 29 28 25 24 23 23 23 22 24 23 24 25 24 24 23 23 22
10 12 14 15 16 19 23 26 24 24 23 24 25 25 24 25 26 27 31 31 32 34 32 35 36 30 27 26 25 24 23 24 24 23 24 23 24 24 24 23 23 22 21 20
13 14 18 19 20 26 28 26 24 24 23 25 25 26 25 25 26 31 33 35 35 32 39 35 31 27 24 23 23 22 22 22 23 23 23 23 23 23 23 23 22 22 22 21
15 18 20 21 25 25 23 21 19 20 21 23 24 26 25 24 26 29 30 33 33 37 38 32 27 24 21 22 22 23 20 19 21 22 22 23 23 23 23 22 23 24 24 21
16 18 23 24 20 22 19 19 21 21 21 22 24 24 23 25 28 27 29 34 34 31 29 26 23 21 21 20 19 20 20 20 22 22 23 23 24 24 24 23 24 24 22 21
16 19 23 21 23 23 21 19 19 20 21 21 21 25 27 27 26 30 29 29 28 23 24 21 20 21 20 19 19 19 20 22 22 23 24 24 25 24 25 24 24 23 22 21
16 21 20 20 20 19 16 17 19 19 20 21 22 21 21 27 30 30 27 27 22 19 19 19 19 19 18 18 19 19 20 21 22 24 25 27 25 26 25 26 24 23 22 22